[[{"header":{"parameterUnit":"m.s-1","parameterCategory":1,"la1":30.2991,"la2":30.254,"lo1":-89.0895,"lo2":-89.0444,"dy":0.0017,"dx":0.0017,"nx":28,"ny":28,"refTime":"2024-02-19T09:00:00:Z","depth":0,"parameterNumber":2,"parameterNumberName":"U-component_of_WINDS"},"data":[0,0,0,0,0,0,0,0,0,0,0,0,0,0,0,0,0,0,0,0,0,0,0,0,0,0,0,0,0,0,0,0,0,0,0,0,0,0,0,0,0,0,0,0,0,0,0,0,0,0,0,0,0,0,0,0,0,0,0.4935,0.4935,0,0.4869,0.4868,0.4867,0.4844,0.4844,0.4844,0.4845,0.4773,0.4771,0.4769,0,0,0,0,0,0,0,0,0,0,0,0,0,0.5039,0.5038,0.4935,0.4935,0.4934,0.4869,0.4868,0.4867,0.4844,0.4844,0.4844,0.4845,0.4774,0.4772,0.4769,0,0,0,0,0,0,0,0,0,0,0,0,0,0.4986,0.5037,0.4936,0.4914,0.4912,0.4869,0.4868,0.4867,0.4844,0.4844,0.4845,0.4845,0.4775,0.4772,0.4769,0.4741,0,0,0.4759,0.4757,0,0,0,0,0,0,0,0,0.4989,0.4982,0.4918,0.4916,0.4913,0.4865,0.4879,0.4825,0.4844,0.487,0.4845,0.4845,0.4803,0.4798,0.4784,0.4738,0.4735,0.4759,0.4757,0.4755,0.4754,0,0,0,0,0,0,0,0.4992,0.4984,0.4909,0.4917,0.4914,0.4907,0.49,0.4868,0.4835,0.4867,0.4865,0.4858,0.4802,0.4788,0.4783,0.4734,0.4759,0.4756,0.4754,0.4753,0.4661,0.466,0,0,0,0,0,0,0.5,0.4988,0.4911,0.4907,0.4953,0.4905,0.4897,0.488,0.4835,0.4829,0.4858,0.4857,0.4793,0.4786,0.478,0.4744,0.4755,0.4752,0.475,0.4661,0.4661,0.466,0,0,0,0,0,0,0.5002,0.4993,0.4914,0.4947,0.4936,0.4903,0.4884,0.4879,0.4864,0.4828,0.4822,0.4849,0.4793,0.4785,0.4751,0.4742,0.4751,0.4748,0.4662,0.4661,0.4661,0.4674,0,0,0,0,0,0,0.5006,0.4994,0.4984,0.4947,0.4935,0.4887,0.4883,0.4877,0.4859,0.4858,0.4819,0.4813,0.4793,0.4756,0.4748,0.4737,0.4745,0.4663,0.4662,0.4661,0.4674,0.4673,0.4673,0,0,0,0,0,0.5009,0.499,0.4984,0.4975,0.4921,0.4886,0.4879,0.4858,0.4858,0.4847,0.4824,0.4814,0.4744,0.4753,0.4744,0.4732,0.4663,0.4662,0.4661,0.4674,0.4674,0.4673,0,0,0,0,0,0,0.5026,0.4985,0.4977,0.4946,0.492,0.4883,0.4868,0.4858,0.483,0.483,0.4803,0.4795,0.4763,0.4744,0.4755,0.4703,0.4703,0.47,0.4716,0.4715,0.4715,0.472,0.4743,0,0,0,0,0,0.5026,0.5003,0.4967,0.4943,0.493,0.4902,0.4885,0.4871,0.4843,0.4831,0.4806,0.4778,0.475,0.4732,0.4704,0.4672,0.4662,0.4659,0.4658,0.4658,0.4655,0.4636,0.4634,0.4657,0.4657,0.4657,0,0,0.5026,0.5001,0.4987,0.4945,0.4924,0.4898,0.4892,0.4866,0.4847,0.4827,0.4794,0.4775,0.4742,0.4709,0.4693,0.4692,0.4648,0.4657,0.4657,0.4654,0.4635,0.4633,0.4631,0.4656,0.4656,0.4656,0,0,0.5013,0.4992,0.4968,0.4947,0.4915,0.4896,0.4891,0.4855,0.4841,0.4808,0.4793,0.4769,0.4721,0.4699,0.4681,0.4659,0.4648,0.4651,0.4648,0.463,0.4628,0.4626,0.4618,0.4615,0.4649,0.4649,0.4649,0,0.5016,0.4979,0.4958,0.4932,0.4914,0.4896,0.4872,0.4852,0.4812,0.4799,0.4799,0.4739,0.4716,0.4677,0.4672,0.4658,0.465,0.4655,0.463,0.4628,0.4626,0.4618,0.4615,0.4649,0.4649,0.4649,0.4649,0,0.4984,0.4958,0.4943,0.4906,0.4886,0.4862,0.4836,0.4818,0.4806,0.4787,0.4753,0.4725,0.4691,0.4681,0.4668,0.464,0.464,0.4636,0.4635,0.4625,0.4616,0.4613,0.465,0.465,0.4649,0.4649,0,0,0.4978,0.493,0.4925,0.4908,0.4871,0.485,0.4825,0.4792,0.4777,0.4751,0.4728,0.4688,0.4684,0.4663,0.4648,0.4632,0.4616,0.4629,0.4628,0.4627,0.4582,0.4585,0.4582,0.4609,0.4608,0.4608,0.4585,0,0.4959,0.4913,0.4894,0.4857,0.4832,0.4815,0.4793,0.4768,0.4749,0.4725,0.4704,0.4677,0.4673,0.4661,0.4645,0.4622,0.4606,0.4623,0.4586,0.4585,0.4594,0.4578,0.458,0.456,0.4581,0.4581,0.458,0,0.493,0.4904,0.4865,0.4831,0.482,0.4801,0.4769,0.4747,0.4717,0.4705,0.4683,0.4669,0.464,0.4643,0.4603,0.4614,0.4598,0.4585,0.4583,0.4578,0.4581,0.4571,0.4553,0.4549,0.4575,0.4576,0.4576,0,0.4929,0.4884,0.4854,0.484,0.4801,0.4787,0.477,0.4741,0.4723,0.4695,0.4683,0.4653,0.4635,0.4612,0.4589,0.4593,0.4551,0.4552,0.4539,0.4539,0.4529,0.453,0.4508,0.4521,0.4521,0.4521,0.4521,0,0.4909,0.4885,0.4853,0.4835,0.4808,0.4786,0.4759,0.474,0.4715,0.4692,0.4676,0.4655,0.4627,0.4602,0.4584,0.4553,0.4545,0.4534,0.4529,0.4535,0.4536,0.4523,0.4523,0.4521,0.4521,0.4521,0.4521,0,0.4902,0.488,0.4846,0.4812,0.4803,0.4784,0.4754,0.4735,0.4717,0.4688,0.468,0.465,0.462,0.4596,0.4556,0.4544,0.4511,0.4506,0.4521,0.4518,0.4507,0.4508,0.4474,0.4468,0.4487,0.4487,0.4486,0,0.489,0.4871,0.4835,0.4819,0.4803,0.4777,0.4759,0.4736,0.4718,0.4683,0.4668,0.4637,0.4611,0.4563,0.4537,0.4507,0.45,0.4491,0.4495,0.4501,0.4499,0.45,0.4497,0.449,0.449,0.449,0.449,0,0.4871,0.4861,0.4836,0.4807,0.4786,0.4761,0.4737,0.4724,0.4697,0.4677,0.4646,0.4626,0.4586,0.4555,0.4522,0.4503,0.4491,0.4489,0.4484,0.4488,0.4497,0.4491,0.4518,0.4489,0.4489,0.4489,0.4489,0.4489,0.486,0.4843,0.4815,0.4787,0.4766,0.4744,0.4724,0.4704,0.4678,0.4645,0.4633,0.4601,0.4572,0.4526,0.4508,0.4482,0.4481,0.4474,0.4472,0.447,0.447,0.4503,0.4476,0.4476,0.4476,0.4476,0.4476,0,0.4839,0.4821,0.4796,0.4762,0.474,0.4733,0.4705,0.4687,0.466,0.4634,0.4609,0.4574,0.4543,0.4516,0.4484,0.4469,0.4463,0.4461,0.4461,0.4457,0.4474,0.4481,0.4467,0.4467,0.4467,0.4467,0.4467,0.4467,0.4826,0.4796,0.4783,0.4742,0.4723,0.4693,0.4678,0.4656,0.4636,0.4597,0.4573,0.4556,0.4529,0.4495,0.4467,0.446,0.4448,0.4448,0.4439,0.4455,0.4456,0.4457,0.4463,0.4446,0.4446,0.4424,0.4424,0.4424]},{"header":{"parameterUnit":"m.s-1","parameterCategory":1,"la1":30.2991,"la2":30.254,"lo1":-89.0895,"lo2":-89.0444,"dy":0.0017,"dx":0.0017,"nx":28,"ny":28,"refTime":"2024-02-19T09:00:00:Z","depth":0,"parameterNumber":3,"parameterNumberName":"V-component_of_WINDS"},"data":[0,0,0,0,0,0,0,0,0,0,0,0,0,0,0,0,0,0,0,0,0,0,0,0,0,0,0,0,0,0,0,0,0,0,0,0,0,0,0,0,0,0,0,0,0,0,0,0,0,0,0,0,0,0,0,0,0,0,-3.8351,-3.8353,0,-3.8502,-3.8504,-3.8506,-3.8458,-3.8455,-3.8452,-3.8449,-3.86,-3.8607,-3.8614,0,0,0,0,0,0,0,0,0,0,0,0,0,-3.8017,-3.8024,-3.8351,-3.8353,-3.8355,-3.8502,-3.8504,-3.8506,-3.8459,-3.8455,-3.8451,-3.8447,-3.8598,-3.8606,-3.8615,0,0,0,0,0,0,0,0,0,0,0,0,0,-3.8165,-3.8026,-3.835,-3.8349,-3.835,-3.8502,-3.8504,-3.8507,-3.846,-3.8455,-3.845,-3.8445,-3.8595,-3.8606,-3.8616,-3.8777,0,0,-3.8648,-3.8653,0,0,0,0,0,0,0,0,-3.8156,-3.8177,-3.8347,-3.8349,-3.8351,-3.8457,-3.8442,-3.8597,-3.8461,-3.8418,-3.8449,-3.8443,-3.8556,-3.857,-3.8608,-3.8784,-3.8791,-3.8649,-3.8655,-3.866,-3.8663,0,0,0,0,0,0,0,-3.8146,-3.817,-3.8411,-3.835,-3.8352,-3.8339,-3.8355,-3.8471,-3.8512,-3.8421,-3.8418,-3.8437,-3.8556,-3.8598,-3.8612,-3.8793,-3.8649,-3.8658,-3.8665,-3.8669,-3.911,-3.9115,0,0,0,0,0,0,-3.8135,-3.8162,-3.8406,-3.8415,-3.824,-3.8349,-3.8367,-3.8427,-3.8511,-3.8519,-3.8441,-3.8434,-3.8583,-3.8599,-3.8617,-3.8813,-3.866,-3.867,-3.8676,-3.9105,-3.9111,-3.9117,0,0,0,0,0,0,-3.8128,-3.8158,-3.84,-3.8288,-3.8318,-3.836,-3.8429,-3.8433,-3.8475,-3.8526,-3.8532,-3.8477,-3.858,-3.8602,-3.8738,-3.8817,-3.8675,-3.8684,-3.9099,-3.9107,-3.9114,-3.9204,0,0,0,0,0,0,-3.8119,-3.8155,-3.8218,-3.829,-3.8324,-3.852,-3.8433,-3.8439,-3.8494,-3.8487,-3.8561,-3.8569,-3.8578,-3.8723,-3.8749,-3.8829,-3.8692,-3.9092,-3.9102,-3.9112,-3.9195,-3.9215,-3.9232,0,0,0,0,0,-3.8107,-3.8236,-3.8221,-3.8251,-3.8403,-3.8524,-3.8544,-3.8553,-3.85,-3.8563,-3.8596,-3.8566,-3.8804,-3.8737,-3.8766,-3.8851,-3.9087,-3.9099,-3.9111,-3.9186,-3.9211,-3.9231,0,0,0,0,0,0,-3.8171,-3.8245,-3.823,-3.8386,-3.8449,-3.8516,-3.8596,-3.8578,-3.8657,-3.8646,-3.8652,-3.867,-3.881,-3.8843,-3.8768,-3.9012,-3.8938,-3.8956,-3.8985,-3.9009,-3.9027,-3.9016,-3.8701,0,0,0,0,0,-3.8203,-3.8296,-3.8356,-3.8488,-3.8521,-3.8553,-3.8606,-3.8608,-3.8673,-3.8699,-3.8742,-3.8806,-3.8895,-3.8953,-3.9038,-3.9199,-3.9215,-3.9271,-3.929,-3.9305,-3.9321,-3.941,-3.9436,-3.9157,-3.9157,-3.9157,0,0,-3.827,-3.8323,-3.8381,-3.8502,-3.8551,-3.8648,-3.8576,-3.868,-3.8751,-3.8715,-3.8847,-3.888,-3.8952,-3.9102,-3.917,-3.9134,-3.9401,-3.932,-3.9332,-3.934,-3.9425,-3.9451,-3.9475,-3.9165,-3.9164,-3.9163,0,0,-3.8443,-3.8491,-3.8607,-3.8659,-3.8735,-3.8756,-3.8784,-3.8854,-3.8875,-3.9008,-3.8983,-3.9067,-3.922,-3.9273,-3.9319,-3.9513,-3.9489,-3.954,-3.9637,-3.9724,-3.9746,-3.9765,-3.9835,-3.986,-3.9556,-3.9556,-3.9556,0,-3.8517,-3.8661,-3.8669,-3.8776,-3.8831,-3.8803,-3.8921,-3.8969,-3.9069,-3.9107,-3.9065,-3.9258,-3.9304,-3.9467,-3.9514,-3.9552,-3.9584,-3.9532,-3.9742,-3.9762,-3.978,-3.9847,-3.9873,-3.9562,-3.9561,-3.956,-3.956,0,-3.8749,-3.885,-3.8934,-3.9033,-3.9096,-3.9208,-3.9232,-3.9295,-3.9291,-3.9316,-3.9452,-3.9506,-3.9602,-3.964,-3.9637,-3.9803,-3.9779,-3.974,-3.9666,-3.9812,-3.9875,-3.9901,-3.957,-3.9568,-3.9566,-3.9565,0,0,-3.8966,-3.9068,-3.9099,-3.9144,-3.9227,-3.9304,-3.9415,-3.951,-3.9564,-3.9634,-3.9727,-3.9857,-3.9823,-3.9876,-3.9877,-3.9953,-4.0104,-3.9905,-3.9907,-3.9941,-4.0292,-4.0322,-4.0351,-4.0089,-4.0093,-4.0097,-4.0286,0,-3.9146,-3.9342,-3.9352,-3.9529,-3.9623,-3.9599,-3.9695,-3.9755,-3.9782,-3.9864,-3.9892,-3.9986,-3.9932,-3.9964,-4.0038,-4.007,-4.0175,-4.0057,-4.0175,-4.0179,-4.0159,-4.0384,-4.0415,-4.0591,-4.0311,-4.0315,-4.0318,0,-3.9382,-3.9461,-3.9649,-3.9719,-3.9759,-3.9845,-3.9934,-4.0013,-4.0081,-4.0095,-4.0155,-4.0146,-4.0259,-4.018,-4.0336,-4.0255,-4.0304,-4.0327,-4.0334,-4.0346,-4.0258,-4.0403,-4.0647,-4.0674,-4.0356,-4.0353,-4.0351,0,-3.9523,-3.9676,-3.9808,-3.9847,-3.9932,-3.9994,-4.0032,-4.0096,-4.0153,-4.0229,-4.0267,-4.0355,-4.0404,-4.0472,-4.0487,-4.0428,-4.0643,-4.0565,-4.0658,-4.0657,-4.0705,-4.0702,-4.0961,-4.0734,-4.0734,-4.0733,-4.0733,0,-3.9724,-3.984,-3.9873,-3.9954,-4.0083,-4.0094,-4.0221,-4.0255,-4.0312,-4.0399,-4.0382,-4.0464,-4.0478,-4.0563,-4.0576,-4.0703,-4.0725,-4.0739,-4.0741,-4.0741,-4.074,-4.0774,-4.0763,-4.074,-4.0739,-4.0737,-4.0736,0,-3.9903,-3.993,-4.0073,-4.0143,-4.0163,-4.0255,-4.0314,-4.0392,-4.0416,-4.0527,-4.0553,-4.0591,-4.0691,-4.0713,-4.0829,-4.0838,-4.0989,-4.0979,-4.0967,-4.0967,-4.1058,-4.105,-4.135,-4.139,-4.1136,-4.1138,-4.114,0,-4.003,-4.0119,-4.0199,-4.0257,-4.0299,-4.0392,-4.045,-4.0464,-4.0525,-4.061,-4.0678,-4.0776,-4.0855,-4.1014,-4.1052,-4.1142,-4.1134,-4.1233,-4.1147,-4.1145,-4.1137,-4.1132,-4.1141,-4.1249,-4.1252,-4.1254,-4.1256,0,-4.0254,-4.0263,-4.0348,-4.044,-4.0511,-4.0583,-4.0651,-4.0699,-4.0722,-4.0792,-4.0894,-4.0956,-4.1076,-4.1174,-4.1264,-4.1301,-4.1284,-4.1283,-4.1309,-4.1311,-4.1301,-4.1309,-4.1013,-4.1276,-4.1274,-4.1273,-4.1272,-4.1271,-4.0412,-4.049,-4.0559,-4.0655,-4.0709,-4.0774,-4.0851,-4.0886,-4.0972,-4.1072,-4.1074,-4.1186,-4.1252,-4.1372,-4.1415,-4.1502,-4.1471,-4.1509,-4.1519,-4.1529,-4.1538,-4.1287,-4.1518,-4.1518,-4.1517,-4.1517,-4.1516,0,-4.0635,-4.0678,-4.0767,-4.0865,-4.0941,-4.0918,-4.0992,-4.1057,-4.1157,-4.122,-4.1299,-4.1417,-4.1511,-4.1557,-4.165,-4.1711,-4.1705,-4.1735,-4.1732,-4.1741,-4.1559,-4.1528,-4.1739,-4.1739,-4.1739,-4.1739,-4.1739,-4.1739,-4.076,-4.0893,-4.091,-4.1068,-4.111,-4.1221,-4.1266,-4.1326,-4.1377,-4.151,-4.1589,-4.1619,-4.1675,-4.1773,-4.1858,-4.1869,-4.1905,-4.194,-4.1946,-4.1776,-4.1753,-4.1732,-4.1703,-4.1947,-4.1947,-4.2121,-4.2123,-4.2124]}]]